GW0664 Weather Reports


Display with metric or nautical units.
time (UTC)temp
F
wind
direction
speed
MPH
gust
MPH
rain 1hr
in
rain 24hr
in
rain mn
in
humidity
%
barometer
mb
20260906234552 63 345 8.0 13.0 0.00 1.22 0.91 72 1016.0
20260906233046 63 345 9.0 13.0 0.00 1.22 0.91 73 1016.2
20260906231556 64 345 10.0 14.0 0.00 1.22 0.91 72 1016.0
20260906230048 63 345 7.0 18.0 0.00 1.22 0.91 71 1016.2
20260906224551 64 345 9.0 15.0 0.00 1.22 0.91 70 1016.0
20260906223049 63 345 9.0 12.0 0.00 1.22 0.91 72 1016.0
20260906221548 62 345 7.0 11.0 0.00 1.22 0.91 71 1016.3
20260906220045 62 345 7.0 11.0 0.00 1.22 0.91 70 1016.6
20260906214553 61 345 6.0 13.0 0.00 1.22 0.91 73 1017.0
20260906213049 60 345 5.0 8.0 0.00 1.22 0.91 74 1017.0
20260906211545 60 345 4.0 9.0 0.00 1.22 0.91 73 1016.8
20260906210049 60 345 5.0 10.0 0.00 1.22 0.91 75 1016.8
20260906204555 60 345 7.0 14.0 0.00 1.22 0.91 75 1016.8
20260906203050 59 345 10.0 13.0 0.00 1.22 0.91 74 1016.7
20260906201545 59 345 8.0 11.0 0.00 1.22 0.91 76 1016.7
20260906200047 59 345 6.0 10.0 0.00 1.22 0.91 75 1016.8
20260906194553 58 345 4.0 8.0 0.00 1.22 0.91 79 1017.0
20260906193049 58 345 4.0 6.0 0.00 1.22 0.91 79 1017.1
20260906191548 58 345 2.0 6.0 0.00 1.22 0.91 80 1017.3
20260906190048 58 345 4.0 6.0 0.00 1.22 0.91 81 1017.3
20260906184619 58 345 2.0 5.0 0.00 1.22 0.91 81 1017.3
20260906183050 58 345 3.0 8.0 0.00 1.22 0.91 82 1017.6
20260906181549 58 345 5.0 12.0 0.00 1.22 0.91 81 1017.6
20260906180056 58 345 11.0 16.0 0.00 1.22 0.91 83 1017.4
20260906174553 58 345 14.0 17.0 0.00 1.22 0.91 82 1017.2
20260906173056 58 345 13.0 22.0 0.00 1.22 0.91 83 1017.2
20260906171547 57 345 14.0 19.0 0.00 1.22 0.91 83 1017.0
20260906170100 57 345 14.0 17.0 0.00 1.22 0.91 83 1017.9
20260906164554 57 345 13.0 17.0 0.00 1.22 0.91 84 1017.9
20260906163050 55 345 9.0 20.0 0.00 1.22 0.91 89 1017.8
20260906161556 54 345 12.0 21.0 0.00 1.22 0.91 90 1017.6
20260906160057 54 345 7.0 10.0 0.02 1.22 0.91 91 1018.6
20260906154603 54 345 4.0 12.0 0.02 1.22 0.91 90 1019.3
20260906153046 54 345 9.0 14.0 0.02 1.22 0.91 89 1018.7
20260906151558 53 345 7.0 10.0 0.02 1.22 0.91 91 1018.8
20260906150056 53 345 4.0 12.0 0.00 1.20 0.89 91 1019.2
20260906144550 53 345 9.0 15.0 0.01 1.21 0.89 92 1019.0
20260906143047 53 345 10.0 15.0 0.06 1.21 0.89 93 1019.2
20260906141545 53 345 11.0 14.0 0.12 1.21 0.89 94 1019.7
20260906140056 52 345 10.0 15.0 0.18 1.21 0.89 94 1020.0
20260906134601 52 345 10.0 16.0 0.24 1.22 0.88 94 1020.5
20260906133053 52 345 11.0 15.0 0.20 1.16 0.83 94 1021.0
20260906131557 52 345 9.0 16.0 0.14 1.11 0.77 94 1020.8
20260906130125 52 345 11.0 17.0 0.07 1.04 0.70 93 1020.3
20260906124549 52 345 12.0 15.0 0.01 1.01 0.64 92 1020.0
20260906123046 53 345 9.0 13.0 0.00 1.00 0.63 90 1019.4
20260906121553 53 345 10.0 18.0 0.00 1.00 0.63 92 1019.2
20260906120105 53 345 15.0 23.0 0.00 1.00 0.63 91 1019.2
20260906114549 52 345 14.0 21.0 0.09 1.04 0.63 93 1019.3
20260906113053 52 345 14.0 20.0 0.09 1.04 0.63 93 1019.7
20260906111544 52 345 16.0 23.0 0.09 1.04 0.63 92 1019.9
20260906110053 53 345 12.0 27.0 0.09 1.03 0.62 93 1020.1
20260906104547 53 345 13.0 18.0 0.06 0.95 0.54 94 1020.6
20260906103054 53 345 11.0 14.0 0.06 0.95 0.54 93 1019.1
20260906101554 54 345 3.0 6.0 0.06 0.95 0.54 92 1019.2
20260906100051 54 345 4.0 11.0 0.04 0.93 0.52 92 1019.6
20260906094558 55 345 8.0 14.0 0.00 0.89 0.48 90 1019.5
20260906093053 54 345 5.0 14.0 0.00 0.89 0.48 91 1019.5
20260906091556 55 345 11.0 19.0 0.03 0.89 0.48 90 1018.8
20260906090054 54 345 11.0 19.0 0.09 0.89 0.48 91 1018.7
20260906084547 54 345 15.0 24.0 0.14 0.89 0.48 92 1018.5
20260906083045 53 345 20.0 30.0 0.21 0.89 0.48 94 1018.3
20260906081546 53 345 20.0 27.0 0.26 0.86 0.45 94 1018.7
20260906080056 53 345 10.0 19.0 0.24 0.80 0.39 93 1020.0
20260906074548 53 345 9.0 15.0 0.23 0.75 0.34 93 1020.7
20260906073046 53 345 9.0 13.0 0.23 0.68 0.27 93 1021.1
20260906071545 53 345 10.0 16.0 0.18 0.58 0.18 93 1021.2
20260906070055 53 345 13.0 20.0 0.15 0.56 0.15 93 1020.9
20260906064548 53 345 11.0 17.0 0.12 0.51 0.10 93 1021.0
20260906063047 54 345 15.0 20.0 0.10 0.44 0.03 92 1020.8
20260906061608 54 345 16.0 21.0 0.10 0.41 0.00 92 1020.9
20260906060100 54 345 11.0 15.0 0.13 0.41 0.00 92 1021.5
20260906054549 54 345 14.0 16.0 0.19 0.39 0.39 92 1021.3
20260906053048 54 345 8.0 14.0 0.20 0.34 0.34 92 1022.2
20260906051546 54 345 9.0 11.0 0.19 0.31 0.31 91 1022.1
20260906050056 54 345 7.0 10.0 0.17 0.28 0.28 90 1021.9
20260906044548 55 345 8.0 12.0 0.09 0.21 0.20 89 1021.8
20260906043045 56 345 8.0 13.0 0.03 0.15 0.14 88 1021.7
20260906041556 56 345 11.0 13.0 0.01 0.13 0.12 85 1021.3
20260906040053 57 345 7.0 14.0 0.01 0.12 0.11 84 1021.3
20260906034555 57 345 12.0 19.0 0.01 0.12 0.11 84 1020.6
20260906033058 57 345 14.0 20.0 0.01 0.12 0.11 83 1020.5
20260906031555 57 345 12.0 17.0 0.01 0.12 0.11 82 1020.4
20260906030100 58 345 11.0 17.0 0.00 0.11 0.10 80 1020.4
20260906024546 60 345 13.0 17.0 0.00 0.11 0.10 74 1020.3
20260906023050 60 345 13.0 17.0 0.00 0.11 0.10 72 1020.0
20260906021558 61 345 15.0 20.0 0.00 0.11 0.10 69 1019.8
20260906020047 61 345 14.0 20.0 0.00 0.11 0.10 68 1019.2
20260906014555 62 345 14.0 21.0 0.00 0.11 0.10 67 1019.2
20260906013052 63 345 12.0 16.0 0.00 0.11 0.10 67 1019.2
20260906011547 63 345 13.0 19.0 0.00 0.11 0.10 65 1019.2
20260906010047 65 345 13.0 17.0 0.00 0.11 0.10 63 1018.7
20260906004555 66 345 12.0 19.0 0.00 0.11 0.10 60 1018.6
20260906003049 66 345 11.0 15.0 0.00 0.11 0.10 59 1018.9
20260906001547 67 345 8.0 14.0 0.00 0.11 0.10 58 1018.9
20260906000046 67 345 10.0 14.0 0.00 0.11 0.10 58 1019.2